Home > Weather > Astrakhan > Past weeks

Flag for Russia Weather for the Past 2 Weeks in Astrakhan, Russia

Now
37 °F

Scattered clouds.


Feels Like: 29 °F
Forecast: 23 / 34 °F
Wind: 13 mph from North

Location: Astrakhan

Current Time: Feb 7, 2016 at 5:02:30 PM

Latest Report: Feb 7, 2016 at 4:30 PM


Visibility: N/A

Pressure: 30.27 "Hg

Humidity: 45%

Dew point: 18 °F

Location of AstrakhanLocation

Historic Weather in Astrakhan — Graph

°F

Astrakhan Temperature Yesterday

Maximum temperature yesterday: 41 °F (at 1:00 AM)
Minimum temperature yesterday: 32 °F (at 11:30 PM)
Average temperature yesterday: 37 °F

High & Low Weather Summary for the Past Weeks

 TemperatureHumidityPressure
High54 °F (Feb 4, 12:30 PM)100% (Jan 29, 4:00 AM)30.48 "Hg (Jan 29, 4:00 AM)
Low-2 °F (Jan 27, 5:30 AM)41% (Feb 7, 4:00 PM)29.80 "Hg (Feb 6, 4:00 AM)
Average30 °F83%30.14 "Hg
* Reported Jan 23 4:00 PM — Feb 7 4:00 PM, Astrakhan, Weather by CustomWeather, © 2016

Note: Actual official high and low records may vary slightly from our data, if they occured in-between our weather recording intervals... More about our weather records

Advertising

Astrakhan Weather History for the Previous 24 Hours

 ConditionsComfort  
Time TempWeatherWind HumidityBarometerVisibility
4:00 PM
Sun, Feb 7
37 °FScattered clouds.15 mph41%30.27 "HgN/A
3:30 PM39 °FScattered clouds.13 mph42%30.24 "HgN/A
3:00 PM39 °FScattered clouds.13 mph48%30.24 "HgN/A
2:30 PM37 °FScattered clouds.15 mph56%30.24 "HgN/A
2:00 PM39 °FScattered clouds.10 mph52%30.24 "HgN/A
1:30 PM37 °FPartly sunny.13 mph65%30.21 "HgN/A
1:00 PM36 °FPartly sunny.10 mph75%30.21 "HgN/A
12:30 PM36 °FPartly sunny.13 mph70%30.21 "HgN/A
12:00 PM36 °FLight snow. Mostly cloudy.10 mph75%30.21 "HgN/A
11:30 AM34 °FLight snow. Mostly cloudy.10 mph81%30.21 "HgN/A
11:00 AM34 °FLight snow. Mostly cloudy.10 mph81%30.21 "Hg5 mi
10:30 AM34 °FLight snow. Mostly cloudy.10 mph87%30.21 "Hg4 mi
10:00 AM34 °FLight snow. Mostly cloudy.10 mph87%30.18 "Hg2 mi
9:30 AM34 °FLight snow. Mostly cloudy.10 mph87%30.18 "Hg4 mi
9:00 AM34 °FPartly sunny.13 mph81%30.18 "HgN/A
8:30 AM32 °FPartly sunny.10 mph87%30.15 "HgN/A
8:00 AM32 °FPassing clouds.10 mph87%30.15 "HgN/A
7:30 AM32 °FLow clouds.10 mph87%30.15 "HgN/A
7:00 AM32 °FLow clouds.10 mph87%30.12 "HgN/A
6:30 AM32 °FOvercast.13 mph87%30.09 "HgN/A
6:00 AM32 °FOvercast.13 mph87%30.07 "HgN/A
5:30 AM32 °FOvercast.13 mph87%30.07 "HgN/A
5:00 AM32 °FOvercast.10 mph87%30.07 "HgN/A
4:30 AM32 °FOvercast.13 mph87%30.07 "HgN/A
4:00 AM32 °FOvercast.10 mph87%30.04 "HgN/A
3:30 AM32 °FOvercast.10 mph87%30.04 "HgN/A
3:00 AM32 °FLow clouds.8 mph87%30.01 "HgN/A
2:30 AM32 °FLow clouds.10 mph87%30.01 "HgN/A
2:00 AM32 °FLow clouds.10 mph87%30.01 "HgN/A
1:30 AM32 °FLow clouds.10 mph87%30.01 "HgN/A
1:00 AM32 °FLow clouds.8 mph87%30.01 "HgN/A
12:00 AM32 °FLow clouds.13 mph93%29.98 "HgN/A
11:30 PM
Sat, Feb 6
32 °FLow clouds.13 mph93%29.98 "HgN/A
11:00 PM34 °FLow clouds.10 mph87%29.95 "HgN/A
10:30 PM34 °FLow clouds.13 mph87%29.95 "HgN/A
10:00 PM34 °FLow clouds.10 mph87%29.95 "HgN/A
9:30 PM34 °FLow clouds.10 mph93%29.95 "HgN/A
9:00 PM34 °FLow clouds.10 mph93%29.95 "HgN/A
8:30 PM36 °FLow clouds.10 mph87%29.92 "HgN/A
8:00 PM36 °FLow clouds.13 mph87%29.92 "HgN/A
7:30 PM36 °FDrizzle. Low clouds.8 mph93%29.92 "Hg4 mi
7:00 PM36 °FDrizzle. Low clouds.10 mph93%29.89 "Hg4 mi
6:30 PM36 °FDrizzle. Low clouds.10 mph93%29.89 "Hg4 mi
6:00 PM36 °FDrizzle. Low clouds.8 mph93%29.89 "Hg4 mi
5:30 PM36 °FDrizzle. Low clouds.10 mph93%29.89 "Hg5 mi
5:00 PM36 °FLow clouds.10 mph93%29.86 "Hg5 mi
Weather by CustomWeather, © 2016

See weather overviewHow to use our weather pages